This is the latest recevied weather packets stored in our database for station/object KD7AWQ. If no packets are shown the sender has not sent any weather packets the latest 10 day(s).
| Time | Temp. | Humidity | Pressure | Rain* | Wind** | Luminosity | Snow |
|---|---|---|---|---|---|---|---|
| 1788468124 | 25.56° C | 59% | 1186.7 hPa | 0 mm | - | 360 W/m² | - |
| 1788467819 | 25.56° C | 58% | 1186.5 hPa | 0 mm | - | 220 W/m² | - |
| 1788467514 | 25.56° C | 59% | 1186.7 hPa | 0 mm | - | 186 W/m² | - |
| 1788467209 | 26.11° C | 56% | 1186.5 hPa | 0 mm | - | 166 W/m² | - |
| 1788466905 | 26.67° C | 52% | 1186.7 hPa | 0 mm | - | 194 W/m² | - |
| 1788466604 | 26.67° C | 50% | 1187 hPa | 0 mm | - | 285 W/m² | - |
| 1788466304 | 26.67° C | 50% | 1186.9 hPa | 0 mm | - | 231 W/m² | - |
| 1788465999 | 26.67° C | 48% | 1186.7 hPa | 0 mm | - | 205 W/m² | - |
| 1788465694 | 27.22° C | 48% | 1187.1 hPa | 0 mm | - | 177 W/m² | - |
| 1788465390 | 27.78° C | 47% | 1187.1 hPa | 0 mm | - | 196 W/m² | - |
| 1788465086 | 27.78° C | 46% | 1187 hPa | 0 mm | - | 222 W/m² | - |
| 1788464781 | 27.78° C | 46% | 1186.7 hPa | 0 mm | - | 226 W/m² | - |
| 1788464480 | 27.78° C | 45% | 1187.1 hPa | 0 mm | - | 243 W/m² | - |
| 1788464177 | 28.33° C | 44% | 1187.1 hPa | 0 mm | - | 357 W/m² | - |
| 1788463872 | 28.33° C | 46% | 1187.1 hPa | 0 mm | - | 468 W/m² | - |
| 1788463569 | 27.78° C | 47% | 1187.1 hPa | 0 mm | - | 1132 W/m² | - |
| 1788463263 | 27.78° C | 48% | 1187 hPa | 0 mm | - | 283 W/m² | - |
| 1788462959 | 28.33° C | 46% | 1187.2 hPa | 0 mm | - | 261 W/m² | - |
| 1788462654 | 28.33° C | 46% | 1187.3 hPa | 0 mm | - | 311 W/m² | - |
| 1788462354 | 28.33° C | 46% | 1187.4 hPa | 0 mm | - | 421 W/m² | - |
| 1788462053 | 28.33° C | 46% | 1187.5 hPa | 0 mm | - | 461 W/m² | - |
| 1788461749 | 28.33° C | 46% | 1187.4 hPa | 0 mm | - | 376 W/m² | - |
| 1788461444 | 28.33° C | 46% | 1188 hPa | 0 mm | - | 383 W/m² | - |
| 1788461140 | 28.33° C | 46% | 1187.9 hPa | 0 mm | - | 408 W/m² | - |
| 1788460835 | 28.33° C | 45% | 1187.7 hPa | 0 mm | - | 521 W/m² | - |
* Rain latest hour (hover to see other rain measurements)
** Current wind speed in m/s (hover to see current wind gust speed)